Temp
14 15 16 18 18 18 18 18 18 18 17 18 18 19 19 19 19 19 19 19 19 19 18 19 19 19 18 18 18 18 18 21
13 14 14 15 15 18 18 18 18 18 18 18 18 18 18 18 18 18 18 19 19 19 19 18 18 19 18 18 18 18 18 21
12 12 13 14 15 15 16 16 16 16 16 16 17 17 17 18 18 18 18 18 18 19 19 19 18 18 18 18 18 19 21 21
12 11 12 13 14 14 15 15 14 14 14 14 15 16 16 16 17 17 18 18 18 18 18 18 18 19 21 19 18 20 21 21
12 11 11 11 13 13 14 14 14 14 13 13 14 15 15 15 15 16 16 16 18 19 19 18 19 21 21 21 21 21 21 21
11 10 10 10 12 12 13 13 13 13 12 11 13 14 14 14 15 16 16 15 15 16 17 17 18 19 19 20 20 20 21 22
11 10 10 10 11 11 11 12 11 11 11 10 11 12 12 13 13 14 15 15 14 13 14 15 17 18 18 19 20 20 20 21
10 10 10 10 10 10 11 10 11 11 10 9 9 9 10 11 12 13 14 13 14 14 14 13 14 16 17 18 19 19 21 21
10 10 9 9 9 10 10 10 10 10 10 8 7 8 8 9 11 11 11 11 12 13 14 14 12 14 15 16 18 18 19 20
9 9 8 8 8 9 9 9 9 9 9 8 7 6 7 8 10 10 9 10 10 11 12 13 13 13 11 13 15 17 18 19
9 8 8 8 8 9 9 8 9 9 8 8 6 6 6 7 8 8 7 9 9 10 10 10 11 12 13 13 12 13 15 17
8 8 7 8 9 9 10 10 9 8 8 7 6 6 6 6 7 6 7 8 9 8 8 8 9 10 11 13 14 13 14 15
8 8 7 8 8 8 9 9 9 8 7 6 6 5 5 6 6 6 6 6 6 6 6 7 8 8 8 11 12 14 14 15
8 7 6 7 7 7 7 7 8 7 7 6 5 5 4 5 4 4 4 4 5 5 4 4 5 7 6 7 15 16 17 14
7 7 6 5 5 7 7 8 8 7 7 6 5 4 4 4 4 3 3 3 3 3 3 4 3 5 6 6 9 13 11 13
7 6 6 5 5 6 6 6 7 6 6 5 5 4 4 4 3 2 2 1 1 2 2 2 2 4 5 6 6 6 7 8
7 7 6 5 5 5 5 5 5 5 5 5 5 4 4 3 3 3 2 1 1 1 1 1 2 2 3 3 4 5 5 6
7 7 6 5 5 4 4 4 4 4 4 4 5 4 4 4 3 2 2 1 0 0 1 1 1 1 2 3 4 4 5 6
7 7 6 5 4 4 3 3 3 4 3 4 3 3 2 2 2 1 0 -0 -0 0 0 1 1 1 1 1 2 2 3 4
7 6 6 5 4 3 3 3 3 3 3 2 3 2 1 2 0 -1 -1 -1 -1 -0 0 -0 -0 -1 -1 -0 0 1 1 2
Height
825 824 823 822 821 821 820 820 820 819 819 818 817 817 816 815 815 814 813 812 812 811 811 809 808 808 807 806 805 805 804 802
826 826 825 825 824 822 821 820 819 818 817 816 816 816 815 815 814 813 812 811 810 809 808 807 807 805 805 805 804 803 803 801
829 828 827 827 826 823 822 821 820 818 817 816 814 814 814 813 811 810 810 808 808 807 806 805 804 803 802 801 801 801 800 798
834 831 829 829 828 825 824 824 823 821 819 817 816 813 812 810 808 807 807 806 805 804 803 802 801 801 799 798 798 797 796 794
838 835 833 831 830 829 828 826 824 823 821 818 816 815 813 811 808 807 804 803 803 802 800 799 798 796 795 795 795 794 792 790
842 839 837 834 834 833 832 830 827 825 823 819 818 816 814 811 810 808 806 803 801 798 797 796 795 794 793 792 791 790 787 786
843 842 839 837 836 835 834 833 830 828 825 822 820 819 816 813 810 808 806 804 801 797 796 793 791 789 787 787 786 785 784 782
846 844 841 839 837 836 835 833 832 830 828 824 822 820 817 815 812 809 807 804 801 798 796 792 787 785 782 781 779 779 777 776
847 847 845 842 840 838 836 834 833 831 829 826 824 821 818 816 814 810 807 804 801 798 794 791 786 781 779 775 774 772 772 770
848 847 845 843 841 839 838 836 835 833 831 828 825 822 820 817 815 811 808 805 802 798 794 790 786 782 776 771 768 765 764 763
849 848 846 843 841 840 838 836 835 833 831 829 826 823 820 818 816 813 809 806 803 799 795 792 786 781 775 769 764 760 757 757
851 849 846 845 842 840 839 837 835 833 831 829 826 824 821 818 815 812 810 807 803 799 796 792 788 782 775 767 760 755 751 749
850 849 846 844 843 841 840 838 836 834 832 830 827 824 821 818 814 811 809 806 803 800 796 791 786 783 775 765 758 751 745 741
851 850 849 847 845 843 841 839 836 834 832 830 827 824 821 818 816 812 809 805 802 799 796 792 788 785 781 773 747 743 739 735
852 851 849 848 846 845 843 840 837 834 832 829 827 824 821 819 816 813 809 805 801 799 796 793 788 785 783 781 765 746 748 737
851 851 849 848 846 845 843 841 838 836 833 830 827 824 821 818 815 812 808 805 801 798 795 792 789 784 780 778 774 769 761 742
850 849 848 847 846 844 843 842 839 836 833 830 826 823 820 817 813 810 807 803 800 797 794 791 787 783 779 774 771 766 762 755
847 847 847 847 846 845 843 841 839 835 832 829 824 821 818 815 811 808 805 802 798 794 792 787 785 780 776 772 767 762 756 750
846 846 847 846 846 844 842 840 837 834 831 827 823 820 817 814 810 807 804 800 797 793 788 785 781 777 773 769 764 759 754 747
844 845 845 845 844 843 841 839 836 833 829 826 823 820 816 812 810 806 802 799 795 791 786 782 778 774 770 765 759 754 749 743
Wind_Speed
15 14 13 12 9 7 6 5 4 4 6 6 6 7 8 9 10 10 10 11 12 12 12 12 12 12 13 12 12 12 10 10
17 15 13 12 11 8 7 5 4 3 3 4 8 7 9 9 10 12 13 14 14 14 14 15 15 14 14 15 13 14 13 12
17 16 15 13 12 11 12 10 11 10 9 8 6 7 9 9 10 11 13 14 16 18 18 17 17 18 17 18 17 14 14 14
18 18 17 15 13 13 13 13 13 14 14 13 12 11 10 8 8 10 10 13 16 18 21 20 19 17 17 15 16 17 16 16
19 18 18 17 16 14 14 13 12 12 16 16 14 12 13 14 15 16 14 11 13 14 17 17 19 18 18 18 18 17 18 18
17 17 17 17 14 15 15 15 14 14 15 18 15 14 14 15 14 15 14 14 16 14 13 17 19 20 21 22 22 22 21 20
17 17 16 16 15 13 14 14 14 13 15 17 17 15 16 15 15 15 15 16 16 17 17 19 19 21 21 23 25 25 25 24
13 15 15 13 13 12 12 12 12 13 14 16 17 16 17 16 16 15 16 17 17 17 17 18 21 22 24 24 26 27 27 27
13 13 14 13 12 11 10 11 11 11 12 14 16 16 17 17 15 16 18 19 19 17 17 18 22 23 23 23 28 28 29 30
12 13 13 12 12 10 10 11 11 11 12 13 16 17 17 16 15 16 19 18 18 18 19 20 20 22 25 29 24 25 30 32
12 12 14 13 12 9 10 11 11 11 12 13 16 15 16 16 14 16 18 17 17 18 19 20 23 23 24 26 27 30 28 31
11 12 15 13 13 10 9 11 12 12 12 14 15 15 16 15 14 16 17 17 17 19 20 21 20 23 27 28 29 29 29 34
13 13 16 15 15 15 9 14 12 11 13 14 15 16 16 16 16 16 17 17 19 19 20 20 22 21 23 26 26 29 31 30
11 12 13 14 12 13 11 13 11 12 14 13 15 15 16 15 16 17 18 19 18 19 19 21 20 18 14 22 10 19 25 20
9 10 10 12 12 11 12 11 11 13 15 14 17 15 15 14 15 16 18 17 19 20 20 19 22 20 15 8 6 7 16 22
7 7 8 10 12 12 13 13 14 15 15 16 17 15 15 15 16 17 17 18 18 20 19 20 19 20 20 18 19 18 6 10
5 6 8 10 11 12 13 13 14 14 15 17 16 16 15 15 17 19 19 18 19 20 20 19 21 20 19 18 23 22 22 10
4 6 7 8 9 11 12 13 14 15 15 15 15 16 16 17 19 19 20 20 21 22 23 16 21 22 22 23 22 17 18 15
3 4 6 7 8 10 12 13 13 14 15 16 18 17 17 18 21 21 21 21 22 22 17 22 21 20 22 24 25 25 26 27
3 3 5 7 9 12 13 14 14 14 15 16 16 17 17 19 20 20 21 22 21 22 22 21 21 21 23 24 26 26 24 27
Wind_Direction
50 51 58 63 62 59 57 51 48 34 13 349 320 310 300 292 289 279 271 273 274 275 276 275 270 269 261 255 254 257 258 262
50 45 45 45 47 59 61 52 22 20 25 357 351 347 307 315 303 295 290 287 280 274 272 272 275 267 263 260 256 258 259 255
41 40 38 37 36 41 41 44 32 27 24 18 27 357 342 330 304 290 282 282 284 285 278 270 271 273 267 259 258 257 253 250
36 35 35 32 33 32 35 33 31 29 22 13 9 2 350 333 325 317 309 300 287 281 278 274 269 268 268 271 257 256 252 250
34 32 32 34 30 33 33 28 29 27 20 18 8 5 354 346 342 337 335 320 304 291 281 270 265 264 265 261 263 258 257 254
37 33 33 33 37 33 31 30 31 28 19 20 14 7 359 354 349 343 333 335 317 306 304 286 275 270 265 263 261 261 258 256
37 31 33 33 33 30 29 27 23 24 21 16 16 8 0 354 349 345 339 334 329 322 314 306 296 272 268 265 260 258 258 256
37 32 31 32 32 31 29 23 20 19 16 15 13 9 359 352 348 347 343 337 329 324 316 311 304 299 278 269 264 258 256 255
39 29 24 24 24 24 25 20 17 15 12 10 10 7 359 353 347 345 342 338 334 330 323 316 314 299 294 288 271 264 259 255
38 31 24 24 22 22 22 17 15 12 10 6 5 3 0 354 347 345 340 337 335 334 333 327 319 314 311 296 295 276 265 259
36 29 23 23 20 24 24 18 17 12 9 4 360 359 358 354 345 342 343 336 336 337 333 331 324 318 310 304 295 284 280 267
40 35 27 25 25 24 25 16 13 10 7 2 0 355 354 354 347 345 343 336 335 336 332 328 324 319 313 302 295 289 280 271
40 34 28 28 23 18 12 5 4 3 1 358 358 354 353 355 349 345 343 339 335 334 331 328 326 327 321 318 298 286 274 266
40 37 31 28 23 16 7 356 353 354 350 351 353 351 350 351 346 342 339 335 333 335 333 327 321 324 320 307 300 309 283 313
45 39 35 29 24 13 8 360 353 348 348 345 344 344 344 342 340 338 336 335 330 330 329 326 320 316 312 302 315 309 330 304
56 46 38 30 23 16 9 1 350 344 339 335 336 336 337 337 336 336 333 330 325 326 324 320 315 310 309 294 283 289 305 305
69 52 39 29 22 16 6 357 345 335 331 328 327 330 332 334 335 334 330 327 323 321 319 315 308 305 314 316 303 293 281 274
79 48 36 24 17 10 2 350 340 333 331 328 331 329 328 332 334 332 328 323 322 319 316 318 313 307 302 298 291 288 287 285
99 47 33 18 10 2 356 348 339 334 334 333 331 330 330 328 330 326 323 322 320 316 313 315 313 311 305 300 295 290 290 287
113 52 27 14 4 357 352 347 340 335 334 331 328 328 327 327 325 323 320 320 317 318 313 314 314 311 306 303 299 291 287 284